Weather History for Windom, MN

Change the Weather History Date:

Wednesday, May 14, 2014

  Actual Average Record
Temperature  
Mean Temperature 48 °F -  
Max Temperature 60 °F 71 °F 98 °F (2013)
Min Temperature 35 °F 44 °F 32 °F (2000)
Degree Days  
Heating Degree Days 18    
Moisture  
Dew Point 31 °F    
Average Humidity 59    
Maximum Humidity 93    
Minimum Humidity 31    
Precipitation  
Precipitation 0.00 in - - ()
Sea Level Pressure  
Sea Level Pressure 30.21 in    
Wind  
Wind Speed 7 mph (WNW)    
Max Wind Speed 23 mph    
Max Gust Speed 30 mph    
Visibility 10 miles    
Events      
Averages and records for this station are not official NWS values.
T = Trace of Precipitation, MM = Missing Value Source: NWS Daily Summary

Daily Weather History Graph

Daily Weather History Graph

Search for Another Location

Airport:

Trip Planner

Search our weather history database for the weather conditions in past years. The results will help you decide how hot, cold, wet, or windy it might be!

Date:

Astronomy

May. 14, 2014 Rise Set
Actual Time 5:55 AM CDT 8:38 PM CDT
Civil Twilight 5:22 AM CDT 9:11 PM CDT
Nautical Twilight 4:40 AM CDT 9:53 PM CDT
Astronomical Twilight 3:52 AM CDT 10:42 PM CDT
Moon 8:44 PM CDT (5/14) 5:56 AM CDT (5/14)
Length of Visible Light 15h 49m
Length of Day
14h 42m
Full, 100% of the Moon is Illuminated
May 14
Full
May 14
Full
May 21
Last Quarter
May 28
New
Jun 5
First Quarter

Hourly Weather History & Observations

Time (CDT) Temp. Windchill Dew Point Humidity Pressure Visibility Wind Dir Wind Speed Gust Speed Precip Events Conditions
12:13 AM 41.0 °F 39.0 °F 35.6 °F 81% 30.25 in 10.0 mi South 3.5 mph - N/A   Clear
12:32 AM 41.0 °F 39.0 °F 35.6 °F 81% 30.25 in 10.0 mi South 3.5 mph - N/A   Clear
12:52 AM 39.2 °F 37.0 °F 35.6 °F 87% 30.25 in 10.0 mi South 3.5 mph - N/A   Clear
1:13 AM 39.2 °F 35.9 °F 35.6 °F 87% 30.25 in 10.0 mi South 4.6 mph - N/A   Clear
1:32 AM 39.2 °F 35.9 °F 35.6 °F 87% 30.25 in 10.0 mi SSW 4.6 mph - N/A   Clear
1:52 AM 39.2 °F 37.0 °F 35.6 °F 87% 30.24 in 10.0 mi SSW 3.5 mph - N/A   Clear
2:13 AM 39.2 °F 37.0 °F 35.6 °F 87% 30.24 in 10.0 mi SSW 3.5 mph - N/A   Clear
2:32 AM 39.2 °F - 35.6 °F 87% 30.24 in 10.0 mi Calm Calm - N/A   Clear
2:52 AM 39.2 °F 37.0 °F 35.6 °F 87% 30.23 in 10.0 mi SSW 3.5 mph - N/A   Clear
3:13 AM 37.4 °F 34.9 °F 35.6 °F 93% 30.23 in 10.0 mi SW 3.5 mph - N/A   Clear
3:32 AM 37.4 °F 32.8 °F 33.8 °F 87% 30.23 in 10.0 mi SW 5.8 mph - N/A   Clear
3:52 AM 37.4 °F 34.9 °F 33.8 °F 87% 30.23 in 10.0 mi SW 3.5 mph - N/A   Clear
4:13 AM 37.4 °F 33.8 °F 33.8 °F 87% 30.23 in 10.0 mi SW 4.6 mph - N/A   Clear
4:32 AM 37.4 °F 33.8 °F 33.8 °F 87% 30.23 in 10.0 mi SW 4.6 mph - N/A   Clear
4:52 AM 37.4 °F 33.8 °F 33.8 °F 87% 30.22 in 10.0 mi SW 4.6 mph - N/A   Clear
5:13 AM 37.4 °F 33.8 °F 33.8 °F 87% 30.22 in 10.0 mi WSW 4.6 mph - N/A   Clear
5:32 AM 35.6 °F 31.7 °F 33.8 °F 93% 30.22 in 10.0 mi WSW 4.6 mph - N/A   Clear
5:52 AM 35.6 °F 32.8 °F 33.8 °F 93% 30.22 in 10.0 mi WSW 3.5 mph - N/A   Clear
6:12 AM 37.4 °F 34.9 °F 33.8 °F 87% 30.22 in 10.0 mi SSW 3.5 mph - N/A   Clear
6:32 AM 37.4 °F 33.8 °F 33.8 °F 87% 30.22 in 10.0 mi SSW 4.6 mph - N/A   Clear
6:52 AM 39.2 °F 37.0 °F 33.8 °F 81% 30.22 in 10.0 mi SSW 3.5 mph - N/A   Clear
7:12 AM 39.2 °F 37.0 °F 35.6 °F 87% 30.22 in 10.0 mi SSW 3.5 mph - N/A   Clear
7:33 AM 42.8 °F 40.1 °F 35.6 °F 76% 30.22 in 10.0 mi SW 4.6 mph - N/A   Clear
7:52 AM 44.6 °F 42.2 °F 37.4 °F 76% 30.22 in 10.0 mi SSW 4.6 mph - N/A   Clear
8:12 AM 46.4 °F 43.5 °F 37.4 °F 71% 30.22 in 10.0 mi SW 5.8 mph - N/A   Clear
8:33 AM 48.2 °F - 37.4 °F 66% 30.22 in 10.0 mi WSW 6.9 mph - N/A   Clear
8:52 AM 50.0 °F - 37.4 °F 62% 30.22 in 10.0 mi WSW 9.2 mph - N/A   Clear
10:33 AM 55.4 °F - 30.2 °F 38% 30.21 in 10.0 mi Calm Calm - N/A   Clear
10:53 AM 57.2 °F - 28.4 °F 33% 30.21 in 10.0 mi NNW 6.9 mph - N/A   Clear
11:12 AM 57.2 °F - 28.4 °F 33% 30.20 in 10.0 mi NW 9.2 mph 16.1 mph N/A   Clear
11:33 AM 57.2 °F - 30.2 °F 36% 30.19 in 10.0 mi NNW 4.6 mph - N/A   Clear
11:53 AM 59.0 °F - 30.2 °F 34% 30.20 in 10.0 mi NW 8.1 mph 18.4 mph N/A   Clear
12:12 PM 57.2 °F - 30.2 °F 36% 30.20 in 10.0 mi WNW 6.9 mph 16.1 mph N/A   Clear
12:33 PM 57.2 °F - 28.4 °F 33% 30.19 in 10.0 mi West 3.5 mph - N/A   Clear
12:52 PM 59.0 °F - 30.2 °F 34% 30.19 in 10.0 mi WNW 13.8 mph - N/A   Clear
1:12 PM 59.0 °F - 28.4 °F 31% 30.18 in 10.0 mi WNW 6.9 mph 18.4 mph N/A   Scattered Clouds
1:33 PM 60.8 °F - 30.2 °F 31% 30.18 in 10.0 mi NNW 15.0 mph 20.7 mph N/A   Scattered Clouds
1:52 PM 60.8 °F - 30.2 °F 31% 30.17 in 10.0 mi NW 15.0 mph 18.4 mph N/A   Scattered Clouds
2:12 PM 60.8 °F - 30.2 °F 31% 30.18 in 10.0 mi NW 11.5 mph - N/A   Scattered Clouds
2:33 PM 60.8 °F - 30.2 °F 31% 30.18 in 10.0 mi North 10.4 mph 18.4 mph N/A   Scattered Clouds
2:52 PM 57.2 °F - 30.2 °F 36% 30.17 in 10.0 mi WNW 6.9 mph 18.4 mph N/A   Scattered Clouds
3:12 PM 60.8 °F - 30.2 °F 31% 30.17 in 10.0 mi WNW 15.0 mph 18.4 mph N/A   Scattered Clouds
3:33 PM 60.8 °F - 30.2 °F 31% 30.17 in 10.0 mi WNW 18.4 mph 23.0 mph N/A   Scattered Clouds
4:12 PM 57.2 °F - 32.0 °F 38% 30.17 in 10.0 mi NNW 15.0 mph 20.7 mph N/A   Scattered Clouds
4:33 PM 57.2 °F - 32.0 °F 38% 30.17 in 10.0 mi North 20.7 mph - N/A   Mostly Cloudy
4:52 PM 59.0 °F - 32.0 °F 36% 30.17 in 10.0 mi North 19.6 mph 29.9 mph N/A   Mostly Cloudy
5:12 PM 55.4 °F - 30.2 °F 38% 30.17 in 10.0 mi NNW 21.9 mph 25.3 mph N/A   Scattered Clouds
5:32 PM 55.4 °F - 30.2 °F 38% 30.17 in 10.0 mi North 23.0 mph 28.8 mph N/A   Scattered Clouds
5:52 PM 55.4 °F - 28.4 °F 36% 30.17 in 10.0 mi NNW 23.0 mph 28.8 mph N/A   Scattered Clouds
6:13 PM 53.6 °F - 26.6 °F 35% 30.17 in 10.0 mi NNW 21.9 mph 27.6 mph N/A   Clear
6:32 PM 53.6 °F - 26.6 °F 35% 30.17 in 10.0 mi NNW 19.6 mph 27.6 mph N/A   Clear
6:52 PM 51.8 °F - 26.6 °F 38% 30.17 in 10.0 mi NNW 21.9 mph 27.6 mph N/A   Clear
7:13 PM 51.8 °F - 24.8 °F 35% 30.17 in 10.0 mi NNW 23.0 mph 29.9 mph N/A   Clear
7:32 PM 50.0 °F - 24.8 °F 37% 30.18 in 10.0 mi NNW 21.9 mph 28.8 mph N/A   Clear
7:52 PM 48.2 °F - 26.6 °F 43% 30.19 in 10.0 mi NNW 20.7 mph 27.6 mph N/A   Clear
8:13 PM 46.4 °F 38.7 °F 26.6 °F 46% 30.20 in 10.0 mi NNW 20.7 mph 26.5 mph N/A   Clear
8:52 PM 44.6 °F 37.2 °F 26.6 °F 49% 30.22 in 10.0 mi NNW 17.3 mph - N/A   Clear
9:13 PM 42.8 °F 34.8 °F 26.6 °F 53% 30.22 in 10.0 mi NNW 17.3 mph - N/A   Clear
9:32 PM 42.8 °F 35.8 °F 28.4 °F 57% 30.23 in 10.0 mi NNW 13.8 mph - N/A   Clear
10:13 PM 39.2 °F 32.5 °F 28.4 °F 65% 30.24 in 10.0 mi NNW 10.4 mph - N/A   Clear
10:32 PM 39.2 °F 32.5 °F 28.4 °F 65% 30.24 in 10.0 mi North 10.4 mph - N/A   Clear
10:52 PM 37.4 °F 30.8 °F 28.4 °F 70% 30.24 in 10.0 mi NNW 9.2 mph - N/A   Clear
11:13 PM 37.4 °F 30.8 °F 28.4 °F 70% 30.24 in 10.0 mi NNW 9.2 mph - N/A   Clear
11:32 PM 37.4 °F 31.4 °F 28.4 °F 70% 30.23 in 10.0 mi NNW 8.1 mph - N/A   Clear
11:52 PM 35.6 °F 29.2 °F 28.4 °F 75% 30.22 in 10.0 mi NNW 8.1 mph - N/A   Clear